#timestamp,LO_Frequency,Hit,StdDev 
1672297215.3,286046999.0,N
1672297235.1,286046998.5,N
1672297236.0,286046998.5,N
1672297255.8,286046998.2,N
1672297275.7,286047001.0,N
1672297295.5,286047000.6,N
1672297315.3,286046998.6,N
1672297335.2,286046998.4,N
1672297355.0,286046998.8,N
1672297355.9,286046998.8,N
1672297375.8,286046999.0,N
1672297395.6,286047000.6,N
1672297415.4,286046998.6,N
1672297435.3,286046998.1,N
1672297455.1,286046999.4,N
1672297475.9,286046998.3,N
1672297495.7,286046998.9,N
1672297515.5,286046996.8,N
1672297535.4,286046995.3,Y
1672297555.2,286046997.9,P
1672297575.0,286046997.3,P
1672297575.9,286046997.3,P
1672297595.8,286046999.5,N
1672297615.6,286046999.4,N
1672297635.5,286046999.1,N
1672297655.3,286046996.7,Y
1672297675.1,286046998.8,P
1672297695.9,286046999.0,P
1672297715.7,286046999.0,P
1672297735.5,286046998.4,Y
1672297755.4,286046999.9,P
1672297775.2,286047000.5,N
1672297795.1,286046999.9,N
1672297796.0,286046999.9,N
1672297815.8,286046999.9,N
1672297835.6,286046999.8,N
1672297855.5,286047000.1,N
1672297875.3,286047000.2,N
1672297895.1,286047000.0,N
1672297915.9,286047002.8,Y
1672297935.7,286046999.8,P
1672297955.6,286046999.9,N
1672297975.4,286046998.5,P
1672297995.2,286046998.3,N
1672298015.1,286046999.3,N
1672298016.0,286046999.3,N
1672298035.8,286046998.6,N
1672298055.7,286046999.2,N
1672298075.5,286046999.6,N
1672298095.3,286046999.0,N
1672298115.2,286046998.8,N
1672298135.9,286046998.6,N
1672298155.7,286046999.2,N
1672298175.6,286046998.8,N
1672298195.4,286046999.4,N
1672298215.3,286046999.1,N
1672298235.1,286046999.0,N
1672298236.0,286046999.0,N
1672298255.8,286046996.6,Y
1672298275.7,286046997.3,P
1672298295.5,286046996.6,P
1672298315.3,286046999.6,N
1672298335.2,286046999.5,N
1672298355.0,286046998.9,N
1672298355.9,286046998.9,N
1672298375.8,286046998.8,N
1672298395.6,286047001.2,N
1672298415.4,286046998.2,N
1672298435.3,286046998.4,N
1672298455.1,286046999.3,N
1672298475.8,286046996.9,N
1672298495.7,286046999.4,N
1672298515.5,286046999.2,N
1672298535.4,286046999.2,N
1672298555.2,286046996.5,Y
1672298575.0,286046998.2,P
1672298575.9,286046998.2,P
1672298595.8,286046998.6,P
1672298615.6,286046998.1,Y
1672298635.4,286047000.7,P
1672298655.3,286047002.3,N
1672298675.1,286047000.6,N
1672298695.9,286047000.5,N
1672298715.7,286047001.1,N
1672298735.5,286046998.9,N
1672298755.4,286046998.3,N
1672298775.2,286046998.2,N
1672298795.0,286047000.4,N
1672298795.9,286047000.4,N
1672298815.8,286046998.6,N
1672298835.6,286047000.9,N
1672298855.5,286046998.8,N
1672298875.3,286047001.2,N
1672298895.1,286047001.0,N
1672298915.9,286047000.3,N
1672298935.7,286047000.5,N
1672298955.5,286046998.5,N
1672298975.4,286047000.8,N
1672298995.2,286047001.0,N
1672299015.1,286047001.2,N
1672299016.0,286047001.2,N
1672299035.8,286046998.6,N
1672299055.6,286047001.1,N
1672299075.5,286046998.5,N
1672299095.3,286046998.6,N
1672299115.1,286046998.9,N
1672299135.9,286046998.4,N
1672299155.7,286046999.2,N
1672299175.6,286046998.9,N
1672299195.4,286046998.4,N
1672299215.2,286047000.4,N
1672299235.1,286047000.9,N
1672299236.0,286047000.9,N
1672299255.8,286046999.9,N
1672299275.7,286047000.3,N
1672299295.5,286046998.2,N
1672299315.3,286047001.2,N
1672299335.2,286047001.0,N
1672299355.0,286047000.6,N
1672299355.9,286047000.6,N
1672299375.8,286047001.2,N
1672299395.6,286047000.7,N
1672299415.4,286047000.5,N
1672299435.3,286047000.6,N
1672299455.1,286047000.6,N
1672299475.9,286046998.8,N
1672299495.7,286046998.1,N
1672299515.5,286047000.6,N
1672299535.4,286046998.5,N
1672299555.2,286046998.6,N
1672299575.1,286047000.4,N
1672299576.0,286047000.4,N
1672299595.8,286046999.9,N
1672299615.6,286047000.7,N
1672299635.5,286047000.2,N
1672299655.3,286047002.8,N
1672299675.2,286047002.5,N
1672299695.9,286047002.2,N
1672299715.7,286047001.6,N
1672299735.6,286047002.3,N
1672299755.4,286047002.8,N
1672299775.2,286047002.1,N
1672299795.1,286047002.4,N
1672299796.0,286047002.4,N
1672299815.8,286047002.4,N
1672299835.7,286047000.3,N
1672299855.5,286047000.2,N
1672299875.3,286047002.5,N
1672299895.2,286047002.8,N
1672299915.0,286047002.3,N
1672299915.9,286047002.3,N
1672299935.8,286047001.9,N
1672299955.6,286047001.9,N
1672299975.4,286047002.1,N
1672299995.3,286047002.1,N
1672300015.1,286047001.9,N
1672300035.9,286047002.5,N
1672300055.7,286047003.8,Y
1672300075.5,286047000.5,P
1672300095.4,286046999.7,N
1672300115.2,286047002.6,P
1672300135.0,286047002.4,N
1672300135.9,286047002.4,N
1672300155.8,286047002.7,N
1672300175.6,286046999.7,N
1672300195.5,286046999.7,N
1672300215.3,286047002.2,N
1672300235.1,286047004.4,Y
1672300255.9,286047001.6,P
1672300275.7,286047002.7,P
1672300295.6,286046999.9,N
1672300315.4,286046999.8,N
1672300335.2,286047000.9,N
1672300355.1,286046998.5,N
1672300356.0,286046998.5,N
1672300375.8,286047002.7,N
1672300395.6,286047001.6,N
1672300415.5,286047001.5,N
1672300435.3,286047001.9,N
1672300455.2,286047001.8,N
1672300475.9,286047004.3,Y
1672300495.7,286047002.5,P
1672300515.6,286047001.8,N
1672300535.4,286047004.2,P
1672300555.2,286047001.9,N
1672300575.1,286047002.7,N
1672300576.0,286047002.7,N
1672300595.8,286047002.1,N
1672300615.7,286047001.8,N
1672300635.5,286047002.0,N
1672300655.3,286046999.8,N
1672300675.2,286047000.1,N
1672300695.0,286047002.8,N
1672300695.9,286047002.8,N
1672300715.8,286047002.6,N
1672300735.6,286047001.3,N
1672300755.4,286047001.5,N
1672300775.3,286047001.8,N
1672300795.1,286047002.6,N
